AAL1591 KMIA-KDCA

Flight info

Callsign AAL1591
Flight time 1h 58m
Altitude 38000
Route FOLZZ3 ALYRA GRUBR/N0451F370 Y299 SEELO GARIC RANAY TANJA WAVES CAPSS4
Aircraft A319/M-SDE3FGHIRWY/LB1

Departure

Time 2026-05-04 02:50
Airport Miami International Airport (KMIA)

Arrival

Time 2026-05-04 04:49
Airport Ronald Reagan Washington National Airport (KDCA)
Time Latitude Longitude Altitude Speed Heading
2026-05-04 02:39 25.79591 -80.28928 18 ft 0 kts 293°
2026-05-04 02:43 25.79593 -80.28931 18 ft 2 kts 293°
2026-05-04 02:43 25.79599 -80.28948 19 ft 4 kts 293°
2026-05-04 02:43 25.79615 -80.28988 18 ft 7 kts 294°
2026-05-04 02:44 25.79623 -80.29052 19 ft 9 kts 254°
2026-05-04 02:44 25.79597 -80.29125 19 ft 11 kts 261°
2026-05-04 02:44 25.79626 -80.29202 19 ft 12 kts 300°
2026-05-04 02:44 25.79670 -80.29288 18 ft 14 kts 299°
2026-05-04 02:45 25.79721 -80.29389 18 ft 16 kts 299°
2026-05-04 02:45 25.79778 -80.29501 17 ft 18 kts 300°
2026-05-04 02:45 25.79841 -80.29621 14 ft 19 kts 300°
2026-05-04 02:45 25.79903 -80.29753 13 ft 19 kts 294°
2026-05-04 02:46 25.79956 -80.29883 14 ft 18 kts 293°
2026-05-04 02:46 25.79977 -80.29959 11 ft 0 kts 284°
2026-05-04 02:48 25.79978 -80.29965 11 ft 4 kts 284°
2026-05-04 02:48 25.79995 -80.30012 12 ft 8 kts 310°
2026-05-04 02:49 25.80048 -80.30026 12 ft 8 kts
2026-05-04 02:49 25.80076 -80.29975 12 ft 10 kts 88°
2026-05-04 02:49 25.80080 -80.29864 13 ft 30 kts 87°
2026-05-04 02:49 25.80105 -80.29306 19 ft 110 kts 87°
2026-05-04 02:50 25.80153 -80.28234 90 ft 162 kts 87°
2026-05-04 02:50 25.80235 -80.27013 879 ft 158 kts 83°
2026-05-04 02:50 25.80210 -80.25778 1566 ft 164 kts 103°
2026-05-04 02:50 25.79756 -80.24564 2104 ft 181 kts 116°
2026-05-04 02:51 25.79167 -80.23247 2572 ft 201 kts 118°
2026-05-04 02:51 25.78494 -80.21777 3001 ft 226 kts 118°
2026-05-04 02:51 25.77745 -80.20133 3555 ft 251 kts 118°
2026-05-04 02:51 25.76926 -80.18325 4233 ft 270 kts 118°
2026-05-04 02:52 25.76044 -80.16442 5184 ft 278 kts 120°
2026-05-04 02:52 25.75126 -80.14527 6179 ft 285 kts 117°
2026-05-04 02:52 25.74613 -80.12368 7102 ft 296 kts 95°
2026-05-04 02:52 25.74844 -80.10084 8037 ft 303 kts 72°
2026-05-04 02:53 25.75836 -80.08017 8981 ft 307 kts 50°
2026-05-04 02:53 25.77256 -80.06223 9949 ft 311 kts 46°
2026-05-04 02:53 25.78730 -80.04381 10504 ft 330 kts 46°
2026-05-04 02:53 25.80307 -80.02403 10881 ft 354 kts 47°
2026-05-04 02:54 25.81941 -80.00339 11513 ft 365 kts 47°
2026-05-04 02:54 25.83077 -79.98896 12042 ft 370 kts 47°
2026-05-04 02:54 25.85343 -79.96010 13098 ft 378 kts 47°
2026-05-04 02:54 25.87086 -79.93787 13892 ft 384 kts 47°
2026-05-04 02:55 25.90643 -79.89248 15263 ft 395 kts 47°
2026-05-04 02:55 25.91846 -79.87715 15713 ft 399 kts 47°
2026-05-04 02:55 25.93684 -79.85377 16407 ft 404 kts 47°
2026-05-04 02:56 25.95546 -79.83012 17090 ft 410 kts 47°
2026-05-04 02:56 25.97434 -79.80613 17762 ft 415 kts 47°
2026-05-04 02:56 25.99349 -79.78178 18423 ft 421 kts 47°
2026-05-04 02:56 26.01284 -79.75706 19007 ft 426 kts 47°
2026-05-04 02:57 26.03241 -79.73201 19596 ft 431 kts 46°
2026-05-04 02:57 26.05221 -79.70665 20187 ft 436 kts 46°
2026-05-04 02:57 26.07221 -79.68100 20773 ft 441 kts 46°
2026-05-04 02:57 26.09217 -79.65544 21349 ft 445 kts 46°
2026-05-04 02:58 26.11189 -79.62859 21923 ft 452 kts 52°
2026-05-04 02:58 26.13018 -79.59983 22497 ft 457 kts 52°
2026-05-04 02:58 26.14864 -79.57073 23063 ft 462 kts 52°
2026-05-04 02:58 26.16726 -79.54138 23591 ft 467 kts 52°
2026-05-04 02:59 26.18608 -79.51172 24042 ft 471 kts 52°
2026-05-04 02:59 26.20508 -79.48176 24498 ft 475 kts 52°
2026-05-04 02:59 26.22419 -79.45159 24948 ft 479 kts 52°
2026-05-04 02:59 26.24343 -79.42115 25387 ft 483 kts 52°
2026-05-04 03:00 26.26283 -79.39048 25815 ft 486 kts 52°
2026-05-04 03:00 26.28422 -79.36127 26249 ft 487 kts 43°
2026-05-04 03:00 26.30928 -79.33595 26669 ft 486 kts 33°
2026-05-04 03:00 26.33718 -79.31490 27093 ft 486 kts 27°
2026-05-04 03:01 26.36589 -79.29470 27521 ft 490 kts 27°
2026-05-04 03:01 26.39480 -79.27418 27946 ft 494 kts 27°
2026-05-04 03:01 26.42385 -79.25345 28383 ft 498 kts 27°
2026-05-04 03:01 26.45310 -79.23253 28811 ft 501 kts 27°
2026-05-04 03:02 26.48265 -79.21141 29232 ft 505 kts 27°
2026-05-04 03:02 26.51191 -79.19048 29637 ft 508 kts 27°
2026-05-04 03:02 26.54178 -79.16906 30030 ft 512 kts 28°
2026-05-04 03:02 26.57187 -79.14747 30372 ft 515 kts 28°
2026-05-04 03:03 26.60212 -79.12577 30710 ft 518 kts 28°
2026-05-04 03:03 26.63257 -79.10395 31039 ft 521 kts 27°
2026-05-04 03:03 26.66315 -79.08203 31361 ft 524 kts 28°
2026-05-04 03:03 26.69393 -79.05998 31716 ft 526 kts 27°
2026-05-04 03:04 26.72478 -79.03788 32181 ft 525 kts 28°
2026-05-04 03:04 26.75555 -79.01579 32627 ft 525 kts 28°
2026-05-04 03:04 26.78639 -78.99363 33070 ft 526 kts 28°
2026-05-04 03:04 26.81725 -78.97145 33514 ft 526 kts 28°
2026-05-04 03:05 26.84768 -78.94959 33958 ft 526 kts 28°
2026-05-04 03:05 26.87848 -78.92746 34365 ft 526 kts 27°
2026-05-04 03:05 26.90931 -78.90528 34766 ft 526 kts 27°
2026-05-04 03:05 26.94010 -78.88308 35173 ft 526 kts 27°
2026-05-04 03:06 26.97082 -78.86094 35575 ft 525 kts 27°
2026-05-04 03:06 27.00158 -78.83877 35956 ft 525 kts 26°
2026-05-04 03:06 27.03239 -78.81658 36313 ft 526 kts 26°
2026-05-04 03:06 27.06318 -78.79439 36663 ft 526 kts 26°
2026-05-04 03:07 27.09399 -78.77217 36968 ft 527 kts 26°
2026-05-04 03:07 27.15571 -78.72751 37053 ft 528 kts 26°
2026-05-04 03:08 27.21754 -78.68267 37053 ft 530 kts 26°
2026-05-04 03:08 27.28143 -78.64319 37057 ft 516 kts 12°
2026-05-04 03:08 27.31527 -78.63125 37047 ft 504 kts
2026-05-04 03:09 27.34944 -78.62486 37059 ft 493 kts 355°
2026-05-04 03:09 27.41742 -78.61642 37058 ft 495 kts 355°
2026-05-04 03:10 27.48599 -78.60743 37063 ft 496 kts 355°
2026-05-04 03:10 27.55471 -78.59829 37067 ft 497 kts 355°
2026-05-04 03:11 27.62361 -78.58932 37068 ft 498 kts 355°
2026-05-04 03:11 27.69216 -78.58044 37070 ft 499 kts 355°
2026-05-04 03:12 27.76133 -78.57139 37069 ft 500 kts 355°
2026-05-04 03:12 27.83049 -78.56238 37074 ft 501 kts 355°
2026-05-04 03:13 27.89981 -78.55334 37075 ft 501 kts 355°
2026-05-04 03:13 27.96925 -78.54433 37076 ft 502 kts 355°
2026-05-04 03:14 28.03875 -78.53523 37083 ft 503 kts 355°
2026-05-04 03:14 28.10835 -78.52603 37081 ft 504 kts 355°
2026-05-04 03:15 28.17808 -78.51684 37085 ft 505 kts 354°
2026-05-04 03:15 28.24753 -78.50774 37089 ft 505 kts 354°
2026-05-04 03:16 28.31758 -78.49858 37088 ft 506 kts 354°
2026-05-04 03:16 28.38757 -78.48933 37092 ft 507 kts 354°
2026-05-04 03:17 28.45768 -78.48000 37095 ft 507 kts 354°
2026-05-04 03:17 28.52737 -78.47083 37099 ft 507 kts 354°
2026-05-04 03:18 28.59763 -78.46162 37099 ft 508 kts 354°
2026-05-04 03:18 28.66794 -78.45228 37103 ft 509 kts 354°
2026-05-04 03:19 28.73829 -78.44287 37109 ft 509 kts 354°
2026-05-04 03:19 28.80879 -78.43341 37111 ft 510 kts 354°
2026-05-04 03:20 28.87934 -78.42404 37111 ft 510 kts 354°
2026-05-04 03:20 28.94992 -78.41463 37119 ft 510 kts 354°
2026-05-04 03:21 29.02013 -78.40523 37116 ft 511 kts 354°
2026-05-04 03:21 29.09072 -78.39588 37123 ft 511 kts 354°
2026-05-04 03:22 29.16155 -78.38636 37124 ft 512 kts 354°
2026-05-04 03:22 29.23236 -78.37685 37126 ft 512 kts 354°
2026-05-04 03:23 29.30329 -78.36731 37130 ft 513 kts 353°
2026-05-04 03:23 29.37424 -78.35784 37135 ft 513 kts 353°
2026-05-04 03:24 29.44466 -78.34851 37131 ft 511 kts 352°
2026-05-04 03:24 29.47963 -78.34744 37137 ft 493 kts 342°
2026-05-04 03:24 29.51311 -78.35199 37134 ft 475 kts 333°
2026-05-04 03:24 29.54460 -78.36134 37142 ft 463 kts 328°
2026-05-04 03:25 29.57558 -78.37167 37141 ft 464 kts 328°
2026-05-04 03:25 29.63781 -78.39217 37145 ft 465 kts 329°
2026-05-04 03:26 29.69992 -78.41221 37141 ft 466 kts 329°
2026-05-04 03:26 29.76234 -78.43239 37147 ft 466 kts 329°
2026-05-04 03:27 29.82474 -78.45272 37147 ft 466 kts 329°
2026-05-04 03:27 29.88721 -78.47314 37147 ft 467 kts 329°
2026-05-04 03:28 29.94967 -78.49359 37147 ft 467 kts 329°
2026-05-04 03:28 30.01234 -78.51408 37152 ft 467 kts 329°
2026-05-04 03:29 30.07489 -78.53458 37151 ft 467 kts 329°
2026-05-04 03:29 30.13788 -78.55316 37149 ft 483 kts 338°
2026-05-04 03:29 30.17214 -78.55536 37151 ft 504 kts 350°
2026-05-04 03:30 30.20758 -78.55119 37163 ft 514 kts 355°
2026-05-04 03:30 30.27852 -78.54073 37156 ft 514 kts 355°
2026-05-04 03:31 30.34949 -78.53044 37167 ft 513 kts 355°
2026-05-04 03:31 30.42049 -78.52036 37164 ft 513 kts 355°
2026-05-04 03:32 30.49090 -78.50964 37166 ft 514 kts 356°
2026-05-04 03:32 30.56176 -78.49774 37170 ft 514 kts 357°
2026-05-04 03:33 30.63254 -78.48586 37169 ft 513 kts 356°
2026-05-04 03:33 30.70313 -78.47441 37168 ft 512 kts 356°
2026-05-04 03:34 30.77361 -78.46312 37169 ft 511 kts 356°
2026-05-04 03:34 30.84403 -78.45177 37168 ft 510 kts 356°
2026-05-04 03:35 30.91438 -78.44027 37170 ft 510 kts 357°
2026-05-04 03:35 30.98468 -78.42870 37176 ft 510 kts 357°
2026-05-04 03:36 31.05490 -78.41713 37175 ft 509 kts 357°
2026-05-04 03:36 31.12464 -78.40576 37178 ft 508 kts 357°
2026-05-04 03:37 31.19472 -78.39427 37179 ft 508 kts 357°
2026-05-04 03:37 31.26467 -78.38275 37179 ft 507 kts 357°
2026-05-04 03:38 31.33451 -78.37121 37178 ft 506 kts 357°
2026-05-04 03:38 31.40430 -78.35970 37180 ft 506 kts 357°
2026-05-04 03:39 31.47354 -78.34826 37180 ft 505 kts 357°
2026-05-04 03:39 31.54323 -78.33677 37186 ft 504 kts 357°
2026-05-04 03:40 31.61262 -78.32540 37180 ft 503 kts 357°
2026-05-04 03:40 31.68199 -78.31394 37181 ft 503 kts 358°
2026-05-04 03:41 31.75125 -78.30238 37179 ft 502 kts 358°
2026-05-04 03:41 31.82043 -78.29083 37181 ft 502 kts 358°
2026-05-04 03:42 31.88960 -78.27923 37181 ft 502 kts 358°
2026-05-04 03:42 31.95820 -78.26776 37181 ft 501 kts 358°
2026-05-04 03:43 32.02734 -78.25629 37183 ft 500 kts 358°
2026-05-04 03:43 32.09626 -78.24564 37179 ft 498 kts 357°
2026-05-04 03:44 32.16511 -78.23592 37181 ft 497 kts 356°
2026-05-04 03:44 32.23380 -78.22631 37183 ft 497 kts 357°
2026-05-04 03:45 32.30206 -78.21634 37183 ft 497 kts 357°
2026-05-04 03:45 32.37075 -78.20616 37181 ft 496 kts 357°
2026-05-04 03:46 32.42771 -78.19775 37178 ft 496 kts 357°
2026-05-04 03:46 32.49620 -78.18770 37182 ft 496 kts 357°
2026-05-04 03:47 32.56469 -78.17762 37180 ft 495 kts 357°
2026-05-04 03:47 32.63320 -78.16760 37181 ft 495 kts 357°
2026-05-04 03:48 32.70163 -78.15751 37182 ft 495 kts 357°
2026-05-04 03:48 32.76997 -78.14737 37183 ft 494 kts 357°
2026-05-04 03:49 32.83776 -78.13735 37182 ft 494 kts 357°
2026-05-04 03:49 32.90600 -78.12724 37181 ft 494 kts 357°
2026-05-04 03:50 32.97413 -78.11710 37183 ft 493 kts 357°
2026-05-04 03:50 33.04220 -78.10697 37180 ft 493 kts 358°
2026-05-04 03:51 33.11018 -78.09683 37177 ft 492 kts 358°
2026-05-04 03:51 33.17816 -78.08665 37180 ft 492 kts 358°
2026-05-04 03:52 33.24618 -78.07655 37173 ft 491 kts 358°
2026-05-04 03:52 33.31402 -78.06637 37172 ft 491 kts 358°
2026-05-04 03:53 33.38143 -78.05619 37171 ft 491 kts 358°
2026-05-04 03:53 33.44919 -78.04605 37168 ft 490 kts 358°
2026-05-04 03:54 33.51692 -78.03596 37167 ft 490 kts 358°
2026-05-04 03:54 33.58452 -78.02568 37166 ft 489 kts 358°
2026-05-04 03:55 33.65212 -78.01542 37166 ft 489 kts 358°
2026-05-04 03:55 33.71968 -78.00522 37167 ft 488 kts 358°
2026-05-04 03:56 33.78681 -77.99514 37255 ft 489 kts 358°
2026-05-04 03:56 33.82055 -77.99004 37661 ft 488 kts 358°
2026-05-04 03:56 33.85425 -77.98491 38049 ft 488 kts 358°
2026-05-04 03:56 33.88793 -77.97983 38160 ft 486 kts 357°
2026-05-04 03:57 33.92152 -77.97541 38166 ft 484 kts 356°
2026-05-04 03:57 33.98844 -77.96841 38167 ft 482 kts 355°
2026-05-04 03:58 34.08868 -77.95861 38163 ft 482 kts 355°
2026-05-04 03:58 34.15562 -77.95122 38166 ft 483 kts 356°
2026-05-04 03:59 34.22255 -77.94363 38177 ft 483 kts 356°
2026-05-04 03:59 34.28908 -77.93624 38180 ft 483 kts 356°
2026-05-04 04:00 34.35603 -77.92890 38183 ft 483 kts 356°
2026-05-04 04:00 34.42300 -77.92154 38172 ft 483 kts 356°
2026-05-04 04:01 34.49004 -77.91413 38170 ft 483 kts 356°
2026-05-04 04:01 34.55710 -77.90664 38170 ft 483 kts 356°
2026-05-04 04:02 34.62376 -77.89918 38170 ft 483 kts 356°
2026-05-04 04:02 34.69079 -77.89176 38168 ft 483 kts 356°
2026-05-04 04:03 34.75781 -77.88438 38170 ft 483 kts 356°
2026-05-04 04:03 34.82490 -77.87694 38174 ft 483 kts 356°
2026-05-04 04:04 34.89145 -77.86956 38186 ft 483 kts 356°
2026-05-04 04:04 34.95837 -77.86209 38184 ft 483 kts 356°
2026-05-04 04:05 35.02529 -77.85444 38185 ft 483 kts 356°
2026-05-04 04:05 35.09222 -77.84691 38191 ft 482 kts 355°
2026-05-04 04:06 35.15915 -77.83949 38185 ft 482 kts 355°
2026-05-04 04:06 35.22590 -77.83203 38173 ft 482 kts 355°
2026-05-04 04:07 35.29264 -77.82447 38174 ft 481 kts 355°
2026-05-04 04:07 35.35887 -77.81696 38173 ft 481 kts 355°
2026-05-04 04:08 35.42552 -77.80941 38174 ft 481 kts 355°
2026-05-04 04:08 35.49229 -77.80063 38175 ft 484 kts 358°
2026-05-04 04:09 35.55910 -77.78868 38175 ft 486 kts 359°
2026-05-04 04:09 35.62597 -77.77592 38172 ft 485 kts 359°
2026-05-04 04:10 35.69275 -77.76382 38169 ft 484 kts 359°
2026-05-04 04:10 35.75905 -77.75240 38168 ft 484 kts 358°
2026-05-04 04:11 35.82588 -77.74100 38158 ft 484 kts 358°
2026-05-04 04:11 35.89267 -77.72925 38163 ft 485 kts 359°
2026-05-04 04:12 35.95946 -77.71743 38166 ft 485 kts 359°
2026-05-04 04:12 36.02638 -77.70567 38174 ft 485 kts 359°
2026-05-04 04:13 36.09328 -77.69387 38174 ft 485 kts 359°
2026-05-04 04:13 36.15973 -77.68206 38165 ft 486 kts 359°
2026-05-04 04:14 36.22674 -77.67024 38166 ft 486 kts 359°
2026-05-04 04:14 36.29384 -77.65842 38163 ft 487 kts 359°
2026-05-04 04:15 36.36097 -77.64646 38161 ft 487 kts 359°
2026-05-04 04:15 36.42814 -77.63450 38161 ft 488 kts 359°
2026-05-04 04:16 36.49493 -77.62262 38161 ft 488 kts 359°
2026-05-04 04:16 36.56226 -77.61124 38170 ft 487 kts 358°
2026-05-04 04:17 36.62947 -77.60094 38174 ft 487 kts 357°
2026-05-04 04:17 36.69673 -77.59068 38178 ft 487 kts 357°
2026-05-04 04:18 36.76396 -77.58009 38176 ft 487 kts 358°
2026-05-04 04:18 36.83136 -77.56919 38168 ft 487 kts 358°
2026-05-04 04:19 36.86446 -77.56387 37823 ft 486 kts 358°
2026-05-04 04:19 36.89825 -77.55853 36985 ft 489 kts 358°
2026-05-04 04:19 36.93195 -77.55316 36399 ft 487 kts 358°
2026-05-04 04:19 36.96552 -77.54778 35763 ft 486 kts 358°
2026-05-04 04:20 36.99900 -77.54240 35115 ft 485 kts 358°
2026-05-04 04:20 37.03249 -77.53700 34455 ft 484 kts 358°
2026-05-04 04:20 37.06597 -77.53164 33723 ft 484 kts 358°
2026-05-04 04:20 37.09939 -77.52634 32885 ft 484 kts 358°
2026-05-04 04:21 37.13285 -77.52106 32029 ft 484 kts 358°
2026-05-04 04:21 37.16637 -77.51575 31207 ft 485 kts 358°
2026-05-04 04:21 37.19936 -77.51038 30873 ft 473 kts 358°
2026-05-04 04:21 37.23177 -77.50500 30361 ft 466 kts 358°
2026-05-04 04:22 37.26335 -77.49982 29762 ft 461 kts 358°
2026-05-04 04:22 37.29497 -77.49472 29154 ft 455 kts 358°
2026-05-04 04:22 37.32623 -77.48973 28555 ft 450 kts 358°
2026-05-04 04:22 37.35708 -77.48481 27973 ft 445 kts 358°
2026-05-04 04:23 37.38765 -77.47992 27408 ft 440 kts 358°
2026-05-04 04:23 37.41779 -77.47506 26853 ft 434 kts 358°
2026-05-04 04:23 37.44762 -77.47024 26319 ft 429 kts 358°
2026-05-04 04:23 37.47711 -77.46546 25782 ft 424 kts 358°
2026-05-04 04:24 37.50622 -77.46077 25282 ft 420 kts 358°
2026-05-04 04:24 37.53506 -77.45614 24796 ft 415 kts 358°
2026-05-04 04:24 37.56355 -77.45152 24328 ft 410 kts 359°
2026-05-04 04:24 37.59170 -77.44621 23851 ft 411 kts
2026-05-04 04:25 37.61949 -77.43775 23384 ft 409 kts
2026-05-04 04:25 37.64662 -77.42934 22895 ft 405 kts
2026-05-04 04:25 37.67392 -77.42091 22397 ft 402 kts
2026-05-04 04:25 37.70096 -77.41256 21888 ft 399 kts
2026-05-04 04:26 37.72783 -77.40429 21401 ft 395 kts
2026-05-04 04:26 37.75451 -77.39610 20904 ft 392 kts
2026-05-04 04:26 37.78091 -77.38800 20419 ft 389 kts
2026-05-04 04:26 37.80716 -77.37995 19919 ft 387 kts
2026-05-04 04:27 37.83323 -77.37191 19427 ft 384 kts
2026-05-04 04:27 37.85909 -77.36388 18951 ft 382 kts
2026-05-04 04:27 37.88484 -77.35583 18481 ft 379 kts
2026-05-04 04:27 37.91012 -77.34799 17956 ft 377 kts
2026-05-04 04:28 37.93546 -77.34017 17450 ft 373 kts
2026-05-04 04:28 37.96061 -77.33244 16960 ft 370 kts
2026-05-04 04:28 37.98554 -77.32478 16491 ft 366 kts
2026-05-04 04:28 38.01027 -77.31719 16010 ft 364 kts
2026-05-04 04:29 38.03475 -77.30969 15556 ft 360 kts
2026-05-04 04:29 38.05904 -77.30224 15110 ft 357 kts
2026-05-04 04:29 38.08310 -77.29482 14673 ft 354 kts
2026-05-04 04:29 38.10693 -77.28737 14241 ft 351 kts
2026-05-04 04:30 38.13055 -77.27989 13803 ft 349 kts
2026-05-04 04:30 38.15404 -77.27244 13318 ft 346 kts
2026-05-04 04:30 38.17697 -77.26516 12848 ft 343 kts
2026-05-04 04:30 38.20007 -77.25786 12355 ft 340 kts
2026-05-04 04:31 38.22291 -77.25011 11861 ft 338 kts 10°
2026-05-04 04:31 38.24544 -77.24176 11381 ft 336 kts 11°
2026-05-04 04:31 38.26771 -77.23315 10898 ft 333 kts 12°
2026-05-04 04:31 38.28979 -77.22452 10429 ft 331 kts 12°
2026-05-04 04:32 38.31174 -77.21597 9960 ft 328 kts 12°
2026-05-04 04:32 38.33314 -77.20769 9820 ft 315 kts 12°
2026-05-04 04:32 38.35366 -77.19975 9690 ft 302 kts 12°
2026-05-04 04:32 38.37353 -77.19216 9554 ft 295 kts 11°
2026-05-04 04:33 38.39311 -77.18469 9418 ft 293 kts 12°
2026-05-04 04:33 38.41257 -77.17723 9289 ft 291 kts 12°
2026-05-04 04:33 38.43195 -77.16980 9162 ft 291 kts 12°
2026-05-04 04:33 38.45131 -77.16237 9027 ft 290 kts 12°
2026-05-04 04:34 38.47059 -77.15496 8896 ft 289 kts 12°
2026-05-04 04:34 38.48958 -77.14764 8765 ft 288 kts 12°
2026-05-04 04:34 38.50874 -77.14023 8637 ft 287 kts 12°
2026-05-04 04:34 38.52783 -77.13285 8505 ft 286 kts 12°
2026-05-04 04:35 38.54691 -77.12545 8373 ft 286 kts 12°
2026-05-04 04:35 38.56591 -77.11811 8243 ft 285 kts 12°
2026-05-04 04:35 38.58482 -77.11078 8088 ft 284 kts 12°
2026-05-04 04:35 38.60373 -77.10349 7991 ft 283 kts 12°
2026-05-04 04:36 38.62259 -77.09623 7999 ft 283 kts 12°
2026-05-04 04:36 38.64145 -77.08897 8003 ft 283 kts 12°
2026-05-04 04:36 38.66031 -77.08172 8003 ft 283 kts 12°
2026-05-04 04:36 38.67287 -77.07686 8001 ft 283 kts 12°
2026-05-04 04:37 38.73671 -77.06605 7559 ft 276 kts 359°
2026-05-04 04:37 38.75571 -77.06580 7279 ft 270 kts 348°
2026-05-04 04:38 38.77360 -77.07153 7021 ft 263 kts 334°
2026-05-04 04:38 38.78455 -77.07851 6844 ft 259 kts 324°
2026-05-04 04:38 38.79946 -77.09085 6592 ft 258 kts 323°
2026-05-04 04:38 38.81455 -77.10328 6314 ft 257 kts 324°
2026-05-04 04:39 38.82947 -77.11568 6080 ft 250 kts 321°
2026-05-04 04:39 38.84203 -77.13002 5971 ft 234 kts 313°
2026-05-04 04:39 38.85338 -77.14412 5867 ft 221 kts 313°
2026-05-04 04:39 38.86418 -77.15751 5679 ft 214 kts 313°
2026-05-04 04:40 38.87472 -77.17062 5474 ft 208 kts 313°
2026-05-04 04:40 38.88506 -77.18349 5206 ft 207 kts 314°
2026-05-04 04:40 38.89528 -77.19625 5007 ft 202 kts 314°
2026-05-04 04:40 38.90524 -77.20867 4823 ft 197 kts 314°
2026-05-04 04:41 38.91481 -77.22059 4641 ft 192 kts 314°
2026-05-04 04:41 38.92429 -77.23239 4457 ft 187 kts 314°
2026-05-04 04:41 38.93358 -77.24395 4278 ft 184 kts 314°
2026-05-04 04:41 38.94264 -77.25511 4098 ft 177 kts 315°
2026-05-04 04:42 38.95138 -77.26584 3914 ft 172 kts 315°
2026-05-04 04:42 38.96087 -77.27503 3716 ft 174 kts 337°
2026-05-04 04:42 38.97299 -77.27462 3542 ft 183 kts 17°
2026-05-04 04:42 38.98283 -77.26385 3374 ft 191 kts 45°
2026-05-04 04:43 38.98861 -77.24837 3190 ft 197 kts 73°
2026-05-04 04:43 38.99065 -77.23096 3086 ft 197 kts 79°
2026-05-04 04:43 38.98938 -77.21347 3009 ft 201 kts 108°
2026-05-04 04:43 38.98302 -77.19732 3026 ft 203 kts 116°
2026-05-04 04:44 38.97666 -77.18182 3010 ft 189 kts 116°
2026-05-04 04:44 38.97079 -77.16747 3009 ft 174 kts 116°
2026-05-04 04:44 38.96496 -77.15457 2904 ft 169 kts 126°
2026-05-04 04:44 38.95658 -77.14379 2641 ft 173 kts 140°
2026-05-04 04:45 38.94744 -77.13376 2380 ft 172 kts 139°
2026-05-04 04:45 38.93841 -77.12402 2145 ft 167 kts 141°
2026-05-04 04:45 38.92900 -77.11600 1936 ft 156 kts 150°
2026-05-04 04:47 38.89206 -77.06155 808 ft 133 kts 135°
2026-05-04 04:47 38.88579 -77.05306 645 ft 129 kts 135°
2026-05-04 04:47 38.87968 -77.04481 437 ft 125 kts 139°
2026-05-04 04:47 38.87205 -77.04020 300 ft 122 kts 170°
2026-05-04 04:48 38.86374 -77.03896 101 ft 119 kts 177°
2026-05-04 04:49 38.84883 -77.03869 24 ft 10 kts 290°
2026-05-04 04:49 38.84951 -77.03899 24 ft 12 kts 360°
2026-05-04 04:49 38.85044 -77.03905 24 ft 14 kts 356°
2026-05-04 04:49 38.85150 -77.03917 24 ft 17 kts 355°
2026-05-04 04:50 38.85272 -77.03929 24 ft 19 kts 355°
2026-05-04 04:50 38.85406 -77.03942 24 ft 19 kts 355°
2026-05-04 04:50 38.85533 -77.03956 28 ft 14 kts 355°
2026-05-04 04:50 38.85622 -77.04001 25 ft 15 kts 322°
2026-05-04 04:51 38.85699 -77.04077 26 ft 10 kts 322°
2026-05-04 04:51 38.85704 -77.04118 24 ft 6 kts 230°
2026-05-04 04:51 38.85675 -77.04162 24 ft 4 kts 231°
2026-05-04 04:51 38.85665 -77.04178 26 ft 0 kts 231°